Location: Beadle
(51.4667°N, 109.0000°W)
Time: 05:29:21
(UTC+00:00)

Altair - Pass Details

Date: 03 June 2022
Orbit: 1501 x 1682 km, 47.2° (Epoch: 30 June)

Event Time Altitude Azimuth Distance (km) Brightness Sun altitude
Rises 03:58:40 0° 287° (WNW) 4,916 11.4 -4.7°
Reaches altitude 10° 04:02:14 10° 279° (W) 3,938 10.5 -5.1°
Maximum altitude 04:10:46 33° 221° (SW) 2,577 8.7 -6.0°
Drops below altitude 10° 04:19:17 10° 163° (SSE) 3,920 9.1 -6.9°
Enters shadow 04:20:48 - 159° (SSE) 4,325 9.2 -7.0°
Sets 04:22:50 0° 154° (SSE) 4,890 - -7.2°
